Weather History for Almeria, Spain

Change the Weather History Date:

Wednesday, March 26, 2014

  Actual Average Record
Temperature  
Mean Temperature 60 °F -  
Max Temperature 68 °F 66 °F 73 °F (2009)
Min Temperature 53 °F 54 °F 50 °F (2004)
Degree Days  
Heating Degree Days 4    
Growing Degree Days 10 (Base 50)    
Moisture  
Dew Point 29 °F    
Average Humidity 25    
Maximum Humidity 52    
Minimum Humidity 13    
Precipitation  
Precipitation 0.00 in 0.03 in - ()
Sea Level Pressure  
Sea Level Pressure 29.92 in    
Wind  
Wind Speed 18 mph ()    
Max Wind Speed 34 mph    
Max Gust Speed 48 mph    
Visibility 6.2 miles    
Events      
Averages and records for this station are not official NWS values.
T = Trace of Precipitation, MM = Missing Value Source: Averaged Metar Reports

Daily Weather History Graph

Daily Weather History Graph

Search for Another Location

Airport:

Trip Planner

Search our weather history database for the weather conditions in past years. The results will help you decide how hot, cold, wet, or windy it might be!

Date:

Astronomy

Mar. 26, 2014 Rise Set
Actual Time 7:04 AM CET 7:26 PM CET
Civil Twilight 6:38 AM CET 7:52 PM CET
Nautical Twilight 6:08 AM CET 8:22 PM CET
Astronomical Twilight 5:37 AM CET 8:53 PM CET
Moon 3:55 AM CET (3/26) 2:54 PM CET (3/26)
Length of Visible Light 13h 13m
Length of Day
12h 21m
Waning Crescent, 24% of the Moon is Illuminated
Mar 26
Waning Crescent
Mar 30
New
Apr 7
First Quarter
Apr 15
Full
Apr 22
Last Quarter

Hourly Weather History & Observations

Time (CET) Temp. Dew Point Humidity Pressure Visibility Wind Dir Wind Speed Gust Speed Precip Events Conditions
12:00 AM 66 °F 37 °F 23% 29.89 in - West 16.1 mph - -  
1:00 AM 64 °F 39 °F 28% 29.87 in - West 21.9 mph - -  
2:00 AM 63 °F 39 °F 30% 29.87 in - WSW 15.0 mph - -  
3:00 AM 61 °F 37 °F 29% 29.91 in - WNW 20.7 mph - -  
4:00 AM 60 °F 30 °F 20% 29.87 in - NW 34.5 mph - -  
5:00 AM 58 °F 28 °F 20% 29.90 in - NW 27.6 mph - -  
5:00 AM 57.2 °F 26.6 °F 31% 29.89 in 6.2 mi NW 26.5 mph 40.3 mph N/A   Partly Cloudy
5:30 AM 55.4 °F 30.2 °F 38% 29.92 in 6.2 mi WNW 16.1 mph 27.6 mph N/A   Partly Cloudy
6:00 AM 56 °F 28 °F 22% 29.91 in - NW 27.6 mph - -  
6:00 AM 55.4 °F 28.4 °F 36% 29.89 in 6.2 mi NW 25.3 mph 36.8 mph N/A   Partly Cloudy
6:30 AM 55.4 °F 26.6 °F 33% 29.89 in 6.2 mi WNW 23.0 mph 42.6 mph N/A   Partly Cloudy
7:00 AM 55 °F 28 °F 23% 29.88 in 31 mi WNW 32.2 mph - -   Scattered Clouds
7:00 AM 55.4 °F 28.4 °F 36% 29.86 in - WNW 31.1 mph 44.9 mph N/A   Clear
7:30 AM 53.6 °F 26.6 °F 35% 29.86 in - NW 32.2 mph 46.0 mph N/A   Clear
8:00 AM 55 °F 26 °F 20% 29.86 in - NW 32.2 mph - -  
8:00 AM 55.4 °F 24.8 °F 31% 29.86 in - NW 31.1 mph 48.3 mph N/A   Clear
8:30 AM 55.4 °F 23.0 °F 29% 29.89 in - West 16.1 mph 31.1 mph N/A   Clear
9:00 AM 59 °F 22 °F 14% 29.92 in - WSW 19.6 mph - -  
9:00 AM 59.0 °F 19.4 °F 22% 29.92 in - West 19.6 mph - N/A   Clear
9:30 AM 59.0 °F 21.2 °F 23% 29.89 in - West 12.7 mph 27.6 mph N/A   Clear
10:00 AM 61 °F 25 °F 15% 29.93 in 31 mi West 15.0 mph - -   Scattered Clouds
10:00 AM 59.0 °F 23.0 °F 25% 29.95 in 6.2 mi Variable 6.9 mph 19.6 mph N/A   Partly Cloudy
10:30 AM 60.8 °F 24.8 °F 25% 29.95 in 6.2 mi NW 12.7 mph 26.5 mph N/A   Partly Cloudy
11:00 AM 62 °F 27 °F 16% 29.95 in - NW 23.0 mph - -  
11:00 AM 62.6 °F 24.8 °F 24% 29.95 in 6.2 mi NW 21.9 mph - N/A   Partly Cloudy
11:30 AM 62.6 °F 24.8 °F 24% 29.92 in 6.2 mi NW 28.8 mph 42.6 mph N/A   Partly Cloudy
12:00 PM 65 °F 27 °F 14% 29.96 in - WNW 18.4 mph - -  
12:00 PM 64.4 °F 24.8 °F 22% 29.95 in 6.2 mi WNW 20.7 mph - N/A   Partly Cloudy
12:30 PM 66.2 °F 24.8 °F 21% 29.95 in 6.2 mi NW 17.3 mph - N/A   Partly Cloudy
1:00 PM 67 °F 29 °F 14% 29.95 in 31 mi WNW 12.7 mph - -   Scattered Clouds
1:00 PM 66.2 °F 28.4 °F 24% 29.95 in 6.2 mi West 8.1 mph - N/A   Partly Cloudy
1:30 PM 66.2 °F 32.0 °F 28% 29.95 in 6.2 mi WNW 13.8 mph 25.3 mph N/A   Partly Cloudy
2:00 PM 64 °F 44 °F 37% 29.95 in - SW 19.6 mph - -  
2:00 PM 62.6 °F 42.8 °F 48% 29.95 in 6.2 mi SW 17.3 mph 33.4 mph N/A   Partly Cloudy
2:30 PM 64.4 °F 41.0 °F 42% 29.92 in 6.2 mi SW 13.8 mph - N/A   Partly Cloudy
3:00 PM 66 °F 34 °F 19% 29.92 in - SSW 15.0 mph - -  
3:00 PM 66.2 °F 33.8 °F 30% 29.92 in 6.2 mi SSW 15.0 mph - N/A   Partly Cloudy
3:30 PM 64.4 °F 41.0 °F 42% 29.92 in 6.2 mi SW 16.1 mph - N/A   Partly Cloudy
4:00 PM 66 °F 33 °F 19% 29.92 in 31 mi SW 17.3 mph - -   Clear
4:00 PM 64.4 °F 33.8 °F 32% 29.92 in - SW 17.3 mph - N/A   Clear
4:30 PM 62.6 °F 44.6 °F 52% 29.92 in - SSW 13.8 mph - N/A   Clear
5:00 PM 66 °F 36 °F 22% 29.92 in - SW 12.7 mph - -  
5:00 PM 66.2 °F 37.4 °F 35% 29.92 in - WSW 13.8 mph - N/A   Clear
5:30 PM 68.0 °F 24.8 °F 20% 29.92 in - WNW 17.3 mph 28.8 mph N/A   Clear
6:00 PM 67 °F 27 °F 13% 29.92 in - NW 20.7 mph - -  
6:00 PM 68.0 °F 23.0 °F 18% 29.92 in - NW 20.7 mph - N/A   Clear
6:30 PM 66.2 °F 24.8 °F 21% 29.92 in - NW 18.4 mph - N/A   Clear
7:00 PM 66 °F 27 °F 13% 29.94 in 31 mi NW 20.7 mph - -   Clear
7:00 PM 66.2 °F 23.0 °F 19% 29.92 in - NW 18.4 mph 29.9 mph N/A   Clear
7:30 PM 64.4 °F 23.0 °F 21% 29.95 in - NW 12.7 mph 24.2 mph N/A   Clear
8:00 PM 64 °F 28 °F 15% 29.96 in - NW 15.0 mph - -  
8:00 PM 64.4 °F 24.8 °F 22% 29.95 in - NW 12.7 mph 24.2 mph N/A   Clear
8:30 PM 62.6 °F 26.6 °F 26% 29.95 in - NW 18.4 mph - N/A   Clear
9:00 PM 63 °F 28 °F 16% 29.97 in - NNW 16.1 mph - -  
9:00 PM 62.6 °F 26.6 °F 26% 29.95 in - NNW 15.0 mph - N/A   Clear
9:30 PM 62.6 °F 26.6 °F 26% 29.98 in - NW 15.0 mph - N/A   Clear
10:00 PM 62 °F 28 °F 17% 29.99 in 31 mi NW 10.4 mph - -   Clear
10:00 PM 60.8 °F 26.6 °F 27% 29.98 in - NW 10.4 mph - N/A   Clear
10:30 PM 60.8 °F 26.6 °F 27% 29.98 in - North 15.0 mph - N/A   Clear
11:00 PM 62 °F 28 °F 17% 29.99 in - NNW 16.1 mph - -